"read_dt","SO2 (ppb)","flags","PMT voltage (V)","lamp voltage (V)","lamp intensity (Hz)","internal temp (C)","react chamber temp (C)","sample flow (l/min)","pres (mmHg)","SO2 bkg (ppb)","SO2 coefficient"
2015-07-06 00:00:00,1531E-3,5C000000,-0723,0823,12195,030.5,045.5,0.471,728.7,01.19,0.508
2015-07-06 00:01:00,1695E-3,5C000000,-0724,0823,12197,030.5,045.5,0.471,728.8,01.19,0.508
2015-07-06 00:02:00,1852E-3,5C000000,-0724,0823,12276,030.5,045.5,0.470,728.8,01.19,0.508
2015-07-06 00:03:00,1665E-3,5C000000,-0724,0823,12162,030.5,045.5,0.470,728.8,01.19,0.508
2015-07-06 00:04:00,1702E-3,5C000000,-0723,0823,12342,030.5,045.5,0.470,728.9,01.19,0.508
2015-07-06 00:05:00,1685E-3,5C000000,-0724,0823,12134,030.5,045.5,0.470,728.9,01.19,0.508
2015-07-06 00:06:00,1715E-3,5C000000,-0724,0823,12336,030.5,045.5,0.471,729.0,01.19,0.508
2015-07-06 00:07:00,1611E-3,5C000000,-0724,0823,12309,030.5,045.5,0.471,729.1,01.19,0.508
2015-07-06 00:08:00,1697E-3,5C000000,-0723,0823,12174,030.5,045.5,0.470,728.9,01.19,0.508
2015-07-06 00:09:00,1784E-3,5C000000,-0724,0823,12072,030.5,045.5,0.470,728.9,01.19,0.508
2015-07-06 00:10:00,1558E-3,5C000000,-0724,0823,12366,030.5,045.5,0.470,728.9,01.19,0.508
2015-07-06 00:11:00,1652E-3,5C000000,-0724,0823,12412,030.5,045.5,0.471,729.0,01.19,0.508
2015-07-06 00:12:00,1732E-3,5C000000,-0723,0823,12338,030.5,045.5,0.471,728.9,01.19,0.508
2015-07-06 00:13:00,1548E-3,5C000000,-0724,0824,12333,030.5,045.5,0.471,729.0,01.19,0.508
2015-07-06 00:14:00,1709E-3,5C000000,-0724,0823,12360,030.5,045.5,0.470,729.1,01.19,0.508
2015-07-06 00:15:00,1778E-3,5C000000,-0724,0822,12185,030.5,045.5,0.470,728.8,01.19,0.508
2015-07-06 00:16:00,1651E-3,5C000000,-0724,0822,12274,030.5,045.5,0.470,729.0,01.19,0.508
2015-07-06 00:17:00,1512E-3,5C000000,-0724,0822,12238,030.5,045.5,0.471,728.9,01.19,0.508
2015-07-06 00:18:00,1680E-3,5C000000,-0724,0823,12311,030.5,045.5,0.471,729.1,01.19,0.508
2015-07-06 00:19:00,1732E-3,5C000000,-0724,0823,12235,030.4,045.5,0.471,729.0,01.19,0.508
2015-07-06 00:20:00,1618E-3,5C000000,-0724,0823,12213,030.5,045.5,0.470,728.9,01.19,0.508
2015-07-06 00:21:00,1643E-3,5C000000,-0724,0823,12288,030.4,045.5,0.470,729.0,01.19,0.508
2015-07-06 00:22:00,1600E-3,5C000000,-0724,0823,12268,030.5,045.5,0.471,729.2,01.19,0.508
2015-07-06 00:23:00,1862E-3,5C000000,-0724,0823,12203,030.4,045.5,0.471,729.2,01.19,0.508
2015-07-06 00:24:00,1684E-3,5C000000,-0724,0822,12178,030.4,045.5,0.471,729.1,01.19,0.508
2015-07-06 00:25:00,1709E-3,5C000000,-0723,0823,12226,030.4,045.6,0.470,729.3,01.19,0.508
2015-07-06 00:26:00,1810E-3,5C000000,-0724,0823,12202,030.4,045.5,0.470,729.3,01.19,0.508
2015-07-06 00:27:00,1769E-3,5C000000,-0724,0823,12321,030.4,045.5,0.471,729.4,01.19,0.508
2015-07-06 00:28:00,1556E-3,5C000000,-0724,0823,12148,030.4,045.5,0.471,729.3,01.19,0.508
2015-07-06 00:29:00,1630E-3,5C000000,-0724,0822,12195,030.4,045.5,0.471,729.4,01.19,0.508
2015-07-06 00:30:00,1724E-3,5C000000,-0724,0823,12320,030.4,045.5,0.470,729.5,01.19,0.508
2015-07-06 00:31:00,1623E-3,5C000000,-0724,0823,12287,030.4,045.5,0.470,729.5,01.19,0.508
2015-07-06 00:32:00,1733E-3,5C000000,-0724,0823,12237,030.4,045.5,0.471,729.5,01.19,0.508
2015-07-06 00:33:00,1544E-3,5C000000,-0724,0823,12224,030.4,045.5,0.471,729.6,01.19,0.508
2015-07-06 00:34:00,1687E-3,5C000000,-0724,0823,12070,030.4,045.5,0.471,729.5,01.19,0.508
2015-07-06 00:35:00,1791E-3,5C000000,-0724,0823,12318,030.4,045.5,0.470,729.5,01.19,0.508
2015-07-06 00:36:00,1647E-3,5C000000,-0724,0823,12130,030.4,045.5,0.471,729.6,01.19,0.508
2015-07-06 00:37:00,1555E-3,5C000000,-0724,0823,12446,030.4,045.5,0.471,729.6,01.19,0.508
2015-07-06 00:38:00,1580E-3,5C000000,-0724,0823,12388,030.4,045.5,0.471,729.5,01.19,0.508
2015-07-06 00:39:00,1721E-3,5C000000,-0724,0823,12203,030.4,045.5,0.471,729.5,01.19,0.508
2015-07-06 00:40:00,1642E-3,5C000000,-0724,0822,12212,030.4,045.5,0.470,729.5,01.19,0.508
2015-07-06 00:41:00,1572E-3,5C000000,-0724,0823,12276,030.4,045.5,0.471,729.5,01.19,0.508
2015-07-06 00:42:00,1722E-3,5C000000,-0724,0823,12264,030.4,045.5,0.471,729.1,01.19,0.508
2015-07-06 00:43:00,1561E-3,5C000000,-0724,0824,12258,030.4,045.5,0.471,729.4,01.19,0.508
2015-07-06 00:44:00,1714E-3,5C000000,-0724,0822,12242,030.4,045.5,0.471,729.3,01.19,0.508
2015-07-06 00:45:00,1619E-3,5C000000,-0724,0824,12148,030.4,045.5,0.470,729.5,01.19,0.508
2015-07-06 00:46:00,1652E-3,5C000000,-0724,0823,12210,030.4,045.5,0.471,729.3,01.19,0.508
2015-07-06 00:47:00,1683E-3,5C000000,-0724,0824,12509,030.4,045.5,0.471,729.4,01.19,0.508
2015-07-06 00:48:00,1699E-3,5C000000,-0724,0823,12349,030.4,045.5,0.471,729.4,01.19,0.508
2015-07-06 00:49:00,1700E-3,5C000000,-0724,0823,12168,030.3,045.5,0.471,729.5,01.19,0.508
2015-07-06 00:50:00,1715E-3,5C000000,-0724,0823,12334,030.3,045.5,0.470,729.2,01.19,0.508
2015-07-06 00:51:00,1792E-3,5C000000,-0724,0822,12286,030.4,045.5,0.470,729.0,01.19,0.508
2015-07-06 00:52:00,1558E-3,5C000000,-0724,0821,12313,030.3,045.5,0.471,729.3,01.19,0.508
2015-07-06 00:53:00,1752E-3,5C000000,-0724,0823,12300,030.4,045.5,0.471,728.9,01.19,0.508
2015-07-06 00:54:00,1751E-3,5C000000,-0724,0822,12278,030.3,045.5,0.471,728.9,01.19,0.508
2015-07-06 00:55:00,1705E-3,5C000000,-0724,0822,12328,030.3,045.5,0.470,729.1,01.19,0.508
2015-07-06 00:56:00,1590E-3,5C000000,-0724,0823,12424,030.4,045.5,0.470,728.8,01.19,0.508
2015-07-06 00:57:00,1750E-3,5C000000,-0724,0822,12276,030.3,045.5,0.471,728.7,01.19,0.508
2015-07-06 00:58:00,1532E-3,5C000000,-0724,0821,12107,030.3,045.5,0.471,728.9,01.19,0.508
2015-07-06 00:59:00,1774E-3,5C000000,-0724,0823,12194,030.3,045.5,0.471,729.0,01.19,0.508
2015-07-06 01:00:00,1731E-3,5C000000,-0724,0822,12219,030.3,045.5,0.470,729.0,01.19,0.508
2015-07-06 01:01:00,1676E-3,5C000000,-0724,0823,12440,030.3,045.5,0.470,728.9,01.19,0.508
2015-07-06 01:02:00,1792E-3,5C000000,-0724,0823,12311,030.3,045.5,0.470,729.0,01.19,0.508
2015-07-06 01:03:00,1757E-3,5C000000,-0724,0823,12129,030.3,045.5,0.471,729.0,01.19,0.508
2015-07-06 01:04:00,1689E-3,5C000000,-0724,0823,12265,030.3,045.5,0.471,728.6,01.19,0.508
2015-07-06 01:05:00,1711E-3,5C000000,-0724,0824,12238,030.3,045.5,0.471,728.9,01.19,0.508
2015-07-06 01:06:00,1733E-3,5C000000,-0724,0824,12258,030.3,045.5,0.470,729.0,01.19,0.508
2015-07-06 01:07:00,1729E-3,5C000000,-0724,0823,12318,030.3,045.5,0.470,728.9,01.19,0.508
2015-07-06 01:08:00,1656E-3,5C000000,-0724,0823,12170,030.3,045.5,0.471,729.0,01.19,0.508
2015-07-06 01:09:00,1608E-3,5C000000,-0724,0822,12270,030.3,045.5,0.471,729.0,01.19,0.508
2015-07-06 01:10:00,1577E-3,5C000000,-0724,0823,12341,030.3,045.5,0.471,729.2,01.19,0.508
2015-07-06 01:11:00,1563E-3,5C000000,-0724,0823,12265,030.3,045.5,0.471,729.4,01.19,0.508
2015-07-06 01:12:00,1650E-3,5C000000,-0724,0822,12221,030.3,045.5,0.471,729.2,01.19,0.508
2015-07-06 01:13:00,1637E-3,5C000000,-0724,0823,12225,030.3,045.5,0.471,729.6,01.19,0.508
2015-07-06 01:14:00,1599E-3,5C000000,-0724,0823,12171,030.3,045.5,0.471,729.5,01.19,0.508
2015-07-06 01:15:00,1750E-3,5C000000,-0724,0823,12240,030.3,045.5,0.471,729.4,01.19,0.508
2015-07-06 01:16:00,1678E-3,5C000000,-0724,0822,12348,030.2,045.5,0.471,729.2,01.19,0.508
2015-07-06 01:17:00,1490E-3,5C000000,-0724,0823,12397,030.2,045.5,0.471,729.7,01.19,0.508
2015-07-06 01:18:00,1606E-3,5C000000,-0724,0822,12318,030.2,045.5,0.471,729.5,01.19,0.508
2015-07-06 01:19:00,1594E-3,5C000000,-0724,0822,12221,030.3,045.5,0.471,729.5,01.19,0.508
2015-07-06 01:20:00,1729E-3,5C000000,-0724,0822,12328,030.2,045.5,0.471,729.3,01.19,0.508
2015-07-06 01:21:00,1686E-3,5C000000,-0724,0823,12074,030.2,045.5,0.471,729.1,01.19,0.508
2015-07-06 01:22:00,1634E-3,5C000000,-0724,0823,12275,030.2,045.5,0.471,729.3,01.19,0.508
2015-07-06 01:23:00,1711E-3,5C000000,-0724,0823,12254,030.2,045.5,0.471,729.6,01.19,0.508
2015-07-06 01:24:00,1659E-3,5C000000,-0724,0823,12293,030.2,045.5,0.471,729.5,01.19,0.508
2015-07-06 01:25:00,1635E-3,5C000000,-0724,0823,12325,030.2,045.5,0.471,729.4,01.19,0.508
2015-07-06 01:26:00,1820E-3,5C000000,-0724,0823,12122,030.2,045.5,0.471,729.6,01.19,0.508
2015-07-06 01:27:00,1620E-3,5C000000,-0724,0823,12202,030.2,045.5,0.471,729.6,01.19,0.508
2015-07-06 01:28:00,1742E-3,5C000000,-0724,0822,12176,030.2,045.5,0.471,729.5,01.19,0.508
2015-07-06 01:29:00,1681E-3,5C000000,-0724,0823,12295,030.2,045.5,0.471,729.5,01.19,0.508
2015-07-06 01:30:00,1671E-3,5C000000,-0724,0823,12224,030.2,045.5,0.471,729.5,01.19,0.508
2015-07-06 01:31:00,1607E-3,5C000000,-0724,0822,12252,030.2,045.5,0.471,729.5,01.19,0.508
2015-07-06 01:32:00,1622E-3,5C000000,-0724,0823,12228,030.2,045.5,0.471,729.4,01.19,0.508
2015-07-06 01:33:00,1816E-3,5C000000,-0724,0822,12322,030.2,045.5,0.471,729.0,01.19,0.508
2015-07-06 01:34:00,1699E-3,5C000000,-0724,0822,12222,030.2,045.5,0.471,729.2,01.19,0.508
2015-07-06 01:35:00,1631E-3,5C000000,-0724,0823,12198,030.2,045.5,0.471,729.0,01.19,0.508
2015-07-06 01:36:00,1673E-3,5C000000,-0724,0823,12334,030.2,045.5,0.471,729.0,01.19,0.508
2015-07-06 01:37:00,1817E-3,5C000000,-0724,0823,12381,030.2,045.5,0.471,729.4,01.19,0.508
2015-07-06 01:38:00,1756E-3,5C000000,-0724,0823,12263,030.2,045.5,0.471,729.2,01.19,0.508
2015-07-06 01:39:00,1687E-3,5C000000,-0724,0823,12383,030.2,045.5,0.471,729.5,01.19,0.508
2015-07-06 01:40:00,1593E-3,5C000000,-0724,0823,12249,030.1,045.5,0.471,729.6,01.19,0.508
2015-07-06 01:41:00,1776E-3,5C000000,-0724,0823,12091,030.1,045.5,0.471,729.5,01.19,0.508
2015-07-06 01:42:00,1748E-3,5C000000,-0724,0823,12298,030.2,045.5,0.471,729.5,01.19,0.508
2015-07-06 01:43:00,1638E-3,5C000000,-0724,0823,12236,030.1,045.5,0.471,729.6,01.19,0.508
2015-07-06 01:44:00,1635E-3,5C000000,-0724,0822,12191,030.1,045.5,0.471,729.6,01.19,0.508
2015-07-06 01:45:00,1580E-3,5C000000,-0724,0822,12265,030.1,045.5,0.471,729.7,01.19,0.508
2015-07-06 01:46:00,1801E-3,5C000000,-0724,0823,12336,030.1,045.6,0.471,729.6,01.19,0.508
2015-07-06 01:47:00,1733E-3,5C000000,-0724,0823,12347,030.1,045.5,0.471,729.7,01.19,0.508
2015-07-06 01:48:00,1694E-3,5C000000,-0724,0823,12151,030.1,045.5,0.471,729.7,01.19,0.508
2015-07-06 01:49:00,1707E-3,5C000000,-0724,0822,12236,030.1,045.5,0.471,729.4,01.19,0.508
2015-07-06 01:50:00,1715E-3,5C000000,-0724,0823,12234,030.1,045.5,0.471,729.6,01.19,0.508
2015-07-06 01:51:00,1656E-3,5C000000,-0724,0822,12273,030.1,045.5,0.471,729.6,01.19,0.508
2015-07-06 01:52:00,1491E-3,5C000000,-0724,0823,12255,030.1,045.5,0.471,729.8,01.19,0.508
2015-07-06 01:53:00,1633E-3,5C000000,-0724,0824,12374,030.1,045.5,0.471,729.7,01.19,0.508
2015-07-06 01:54:00,1645E-3,5C000000,-0724,0824,12260,030.1,045.5,0.471,729.8,01.19,0.508
2015-07-06 01:55:00,1648E-3,5C000000,-0724,0823,12244,030.1,045.5,0.471,730.1,01.19,0.508
2015-07-06 01:56:00,1675E-3,5C000000,-0724,0823,12251,030.1,045.5,0.471,729.7,01.19,0.508
2015-07-06 01:57:00,1628E-3,5C000000,-0724,0823,12081,030.1,045.5,0.471,729.7,01.19,0.508
2015-07-06 01:58:00,1739E-3,5C000000,-0724,0823,12293,030.1,045.5,0.471,729.7,01.19,0.508
2015-07-06 01:59:00,1796E-3,5C000000,-0724,0822,12287,030.1,045.5,0.471,729.8,01.19,0.508
2015-07-06 02:00:00,1740E-3,5C000000,-0724,0823,12324,030.1,045.5,0.471,729.7,01.19,0.508
2015-07-06 02:01:00,1630E-3,5C000000,-0724,0823,12292,030.1,045.5,0.471,729.3,01.19,0.508
2015-07-06 02:02:00,1658E-3,5C000000,-0724,0822,12147,030.1,045.5,0.471,729.5,01.19,0.508
2015-07-06 02:03:00,1601E-3,5C000000,-0724,0823,12158,030.1,045.5,0.471,729.5,01.19,0.508
2015-07-06 02:04:00,1667E-3,5C000000,-0724,0823,12357,030.0,045.5,0.471,729.0,01.19,0.508
2015-07-06 02:05:00,1686E-3,5C000000,-0724,0823,12207,030.1,045.5,0.471,729.0,01.19,0.508
2015-07-06 02:06:00,1670E-3,5C000000,-0724,0823,12276,030.1,045.5,0.471,729.1,01.19,0.508
2015-07-06 02:07:00,1665E-3,5C000000,-0724,0823,12137,030.1,045.5,0.471,729.0,01.19,0.508
2015-07-06 02:08:00,1594E-3,5C000000,-0724,0822,12279,030.0,045.5,0.471,729.3,01.19,0.508
2015-07-06 02:09:00,1585E-3,5C000000,-0724,0824,12188,030.0,045.5,0.471,729.4,01.19,0.508
2015-07-06 02:10:00,1649E-3,5C000000,-0724,0822,12284,030.0,045.5,0.471,729.2,01.19,0.508
2015-07-06 02:11:00,1668E-3,5C000000,-0724,0823,12182,030.0,045.5,0.471,729.0,01.19,0.508
2015-07-06 02:12:00,1757E-3,5C000000,-0724,0823,12296,030.0,045.5,0.471,729.1,01.19,0.508
2015-07-06 02:13:00,1646E-3,5C000000,-0724,0822,12298,030.0,045.5,0.471,729.0,01.19,0.508
2015-07-06 02:14:00,1751E-3,5C000000,-0724,0823,12186,030.0,045.5,0.471,729.0,01.19,0.508
2015-07-06 02:15:00,1748E-3,5C000000,-0724,0823,12264,030.0,045.5,0.471,728.7,01.19,0.508
2015-07-06 02:16:00,1691E-3,5C000000,-0724,0823,12379,030.0,045.5,0.471,729.0,01.19,0.508
2015-07-06 02:17:00,1646E-3,5C000000,-0724,0824,12256,030.0,045.5,0.471,729.2,01.19,0.508
2015-07-06 02:18:00,1664E-3,5C000000,-0724,0822,12384,030.0,045.5,0.471,729.2,01.19,0.508
2015-07-06 02:19:00,1726E-3,5C000000,-0724,0823,12361,030.0,045.5,0.471,729.0,01.19,0.508
2015-07-06 02:20:00,1684E-3,5C000000,-0724,0823,12188,030.0,045.5,0.471,729.0,01.19,0.508
2015-07-06 02:21:00,1622E-3,5C000000,-0724,0823,12326,030.0,045.5,0.471,728.9,01.19,0.508
2015-07-06 02:22:00,1625E-3,5C000000,-0724,0823,12204,030.0,045.5,0.471,728.8,01.19,0.508
2015-07-06 02:23:00,1609E-3,5C000000,-0724,0823,12367,030.0,045.5,0.472,729.3,01.19,0.508
2015-07-06 02:24:00,1648E-3,5C000000,-0724,0823,12298,030.0,045.5,0.471,729.0,01.19,0.508
2015-07-06 02:25:00,1757E-3,5C000000,-0724,0822,12148,030.0,045.5,0.471,729.4,01.19,0.508
2015-07-06 02:26:00,1719E-3,5C000000,-0724,0823,12098,030.0,045.5,0.471,729.5,01.19,0.508
2015-07-06 02:27:00,1793E-3,5C000000,-0724,0823,12244,030.0,045.5,0.471,729.4,01.19,0.508
2015-07-06 02:28:00,1609E-3,5C000000,-0724,0823,12277,030.0,045.5,0.471,729.4,01.19,0.508
2015-07-06 02:29:00,1726E-3,5C000000,-0724,0823,12309,030.0,045.5,0.471,729.2,01.19,0.508
2015-07-06 02:30:00,1678E-3,5C000000,-0724,0824,12299,030.0,045.5,0.471,729.2,01.19,0.508
2015-07-06 02:31:00,1775E-3,5C000000,-0724,0823,12176,029.9,045.5,0.472,729.4,01.19,0.508
2015-07-06 02:32:00,1636E-3,5C000000,-0724,0823,12335,029.9,045.5,0.471,729.6,01.19,0.508
2015-07-06 02:33:00,1651E-3,5C000000,-0724,0823,12267,029.9,045.5,0.471,729.7,01.19,0.508
2015-07-06 02:34:00,1660E-3,5C000000,-0724,0823,12285,029.9,045.5,0.471,729.7,01.19,0.508
2015-07-06 02:35:00,1685E-3,5C000000,-0724,0823,12300,029.9,045.5,0.471,729.4,01.19,0.508
2015-07-06 02:36:00,1730E-3,5C000000,-0724,0823,12316,029.9,045.5,0.472,729.8,01.19,0.508
2015-07-06 02:37:00,1737E-3,5C000000,-0724,0823,12164,029.9,045.5,0.472,729.6,01.19,0.508
2015-07-06 02:38:00,1500E-3,5C000000,-0724,0823,12206,029.9,045.5,0.472,729.5,01.19,0.508
2015-07-06 02:39:00,1576E-3,5C000000,-0724,0823,12136,029.9,045.5,0.471,729.7,01.19,0.508
2015-07-06 02:40:00,1510E-3,5C000000,-0724,0823,12179,029.9,045.5,0.471,729.3,01.19,0.508
2015-07-06 02:41:00,1809E-3,5C000000,-0724,0822,12314,029.9,045.5,0.471,728.7,01.19,0.508
2015-07-06 02:42:00,1586E-3,5C000000,-0724,0823,12292,029.9,045.5,0.471,729.3,01.19,0.508
2015-07-06 02:43:00,1659E-3,5C000000,-0724,0822,12389,029.9,045.5,0.471,729.5,01.19,0.508
2015-07-06 02:44:00,1595E-3,5C000000,-0724,0823,12324,029.9,045.5,0.472,729.3,01.19,0.508
2015-07-06 02:45:00,1749E-3,5C000000,-0724,0823,12227,029.9,045.5,0.472,729.5,01.19,0.508
2015-07-06 02:46:00,1659E-3,5C000000,-0724,0823,12275,029.9,045.5,0.472,729.4,01.19,0.508
2015-07-06 02:47:00,1559E-3,5C000000,-0724,0823,12316,029.9,045.5,0.472,729.6,01.19,0.508
2015-07-06 02:48:00,1745E-3,5C000000,-0724,0823,12180,029.9,045.5,0.471,729.2,01.19,0.508
2015-07-06 02:49:00,1589E-3,5C000000,-0724,0822,12364,029.9,045.5,0.471,729.7,01.19,0.508
2015-07-06 02:50:00,1687E-3,5C000000,-0724,0822,12288,029.9,045.5,0.471,729.0,01.19,0.508
2015-07-06 02:51:00,1659E-3,5C000000,-0724,0822,12172,029.9,045.5,0.471,729.0,01.19,0.508
2015-07-06 02:52:00,1694E-3,5C000000,-0724,0823,12389,029.9,045.5,0.471,729.0,01.19,0.508
2015-07-06 02:53:00,1702E-3,5C000000,-0724,0822,12217,029.8,045.5,0.472,729.1,01.19,0.508
2015-07-06 02:54:00,1416E-3,5C000000,-0724,0823,12462,029.8,045.5,0.472,728.4,01.19,0.508
2015-07-06 02:55:00,1796E-3,5C000000,-0724,0822,12393,029.8,045.5,0.471,728.4,01.19,0.508
2015-07-06 02:56:00,1732E-3,5C000000,-0724,0823,12150,029.8,045.5,0.471,728.8,01.19,0.508
2015-07-06 02:57:00,1622E-3,5C000000,-0724,0823,12343,029.8,045.5,0.471,729.0,01.19,0.508
2015-07-06 02:58:00,1812E-3,5C000000,-0724,0823,12352,029.8,045.5,0.471,728.9,01.19,0.508
2015-07-06 02:59:00,1541E-3,5C000000,-0724,0823,12277,029.8,045.5,0.471,729.2,01.19,0.508
2015-07-06 03:00:00,1619E-3,5C000000,-0724,0823,12284,029.8,045.5,0.471,729.0,01.19,0.508
2015-07-06 03:01:00,1724E-3,5C000000,-0724,0822,12140,029.8,045.5,0.471,729.3,01.19,0.508
2015-07-06 03:02:00,1777E-3,5C000000,-0724,0822,12272,029.8,045.5,0.471,729.4,01.19,0.508
2015-07-06 03:03:00,1583E-3,5C000000,-0724,0823,12313,029.8,045.5,0.471,728.8,01.19,0.508
2015-07-06 03:04:00,1629E-3,5C000000,-0724,0823,12203,029.8,045.5,0.472,729.1,01.19,0.508
2015-07-06 03:05:00,1669E-3,5C000000,-0724,0822,12318,029.8,045.5,0.471,728.8,01.19,0.508
2015-07-06 03:06:00,1682E-3,5C000000,-0724,0822,12139,029.8,045.5,0.472,729.1,01.19,0.508
2015-07-06 03:07:00,1706E-3,5C000000,-0724,0823,12271,029.8,045.5,0.472,729.0,01.19,0.508
2015-07-06 03:08:00,1739E-3,5C000000,-0724,0822,12379,029.7,045.5,0.471,729.0,01.19,0.508
2015-07-06 03:09:00,1768E-3,5C000000,-0724,0822,12252,029.7,045.5,0.471,728.8,01.19,0.508
2015-07-06 03:10:00,1576E-3,5C000000,-0724,0822,12152,029.7,045.5,0.471,729.2,01.19,0.508
2015-07-06 03:11:00,1731E-3,5C000000,-0724,0822,12361,029.7,045.5,0.471,729.2,01.19,0.508
2015-07-06 03:12:00,1631E-3,5C000000,-0724,0823,12188,029.7,045.5,0.471,728.9,01.19,0.508
2015-07-06 03:13:00,1676E-3,5C000000,-0724,0823,12072,029.7,045.5,0.471,729.2,01.19,0.508
2015-07-06 03:14:00,1607E-3,5C000000,-0724,0822,12286,029.7,045.5,0.471,729.0,01.19,0.508
2015-07-06 03:15:00,1621E-3,5C000000,-0724,0823,12219,029.7,045.5,0.472,729.0,01.19,0.508
2015-07-06 03:16:00,1839E-3,5C000000,-0724,0822,12181,029.7,045.5,0.472,728.8,01.19,0.508
2015-07-06 03:17:00,1662E-3,5C000000,-0724,0822,12317,029.7,045.5,0.472,729.0,01.19,0.508
2015-07-06 03:18:00,1565E-3,5C000000,-0724,0822,12331,029.7,045.5,0.472,728.9,01.19,0.508
2015-07-06 03:19:00,1575E-3,5C000000,-0724,0823,12084,029.7,045.5,0.471,729.0,01.19,0.508
2015-07-06 03:20:00,1634E-3,5C000000,-0724,0823,12246,029.7,045.5,0.471,728.9,01.19,0.508
2015-07-06 03:21:00,1675E-3,5C000000,-0724,0823,12251,029.7,045.5,0.471,729.1,01.19,0.508
2015-07-06 03:22:00,1718E-3,5C000000,-0724,0823,12206,029.7,045.5,0.471,729.2,01.19,0.508
2015-07-06 03:23:00,1700E-3,5C000000,-0724,0822,12052,029.7,045.5,0.471,728.8,01.19,0.508
2015-07-06 03:24:00,1605E-3,5C000000,-0724,0822,12295,029.6,045.5,0.471,728.8,01.19,0.508
2015-07-06 03:25:00,1868E-3,5C000000,-0724,0822,12168,029.6,045.5,0.472,729.0,01.19,0.508
2015-07-06 03:26:00,1700E-3,5C000000,-0724,0823,12275,029.7,045.5,0.472,729.2,01.19,0.508
2015-07-06 03:27:00,1705E-3,5C000000,-0724,0822,12160,029.6,045.5,0.472,729.2,01.19,0.508
2015-07-06 03:28:00,1595E-3,5C000000,-0724,0823,12347,029.6,045.5,0.472,729.5,01.19,0.508
2015-07-06 03:29:00,1694E-3,5C000000,-0724,0822,12314,029.6,045.5,0.472,728.7,01.19,0.508
2015-07-06 03:30:00,1599E-3,5C000000,-0724,0822,12256,029.6,045.5,0.472,729.2,01.19,0.508
2015-07-06 03:31:00,1631E-3,5C000000,-0724,0823,12224,029.6,045.5,0.472,729.4,01.19,0.508
2015-07-06 03:32:00,1594E-3,5C000000,-0724,0824,12314,029.6,045.5,0.471,728.9,01.19,0.508
2015-07-06 03:33:00,1805E-3,5C000000,-0724,0822,12236,029.6,045.5,0.471,729.4,01.19,0.508
2015-07-06 03:34:00,1719E-3,5C000000,-0724,0823,12323,029.6,045.5,0.471,728.8,01.19,0.508
2015-07-06 03:35:00,1648E-3,5C000000,-0724,0823,12224,029.6,045.5,0.471,729.0,01.19,0.508
2015-07-06 03:36:00,1687E-3,5C000000,-0724,0823,12332,029.6,045.5,0.472,729.1,01.19,0.508
2015-07-06 03:37:00,1684E-3,5C000000,-0724,0823,12251,029.5,045.5,0.472,729.3,01.19,0.508
2015-07-06 03:38:00,1727E-3,5C000000,-0724,0823,12212,029.6,045.5,0.472,728.9,01.19,0.508
2015-07-06 03:39:00,1627E-3,5C000000,-0724,0822,12232,029.5,045.5,0.472,729.0,01.19,0.508
2015-07-06 03:40:00,1655E-3,5C000000,-0724,0822,12354,029.5,045.5,0.472,729.4,01.19,0.508
2015-07-06 03:41:00,1752E-3,5C000000,-0724,0822,12303,029.5,045.5,0.472,729.5,01.19,0.508
2015-07-06 03:42:00,1610E-3,5C000000,-0724,0822,12257,029.6,045.5,0.472,729.2,01.19,0.508
2015-07-06 03:43:00,1662E-3,5C000000,-0724,0822,12288,029.5,045.5,0.472,729.1,01.19,0.508
2015-07-06 03:44:00,1701E-3,5C000000,-0724,0823,12365,029.5,045.5,0.472,729.7,01.19,0.508
2015-07-06 03:45:00,1684E-3,5C000000,-0724,0822,12388,029.5,045.5,0.472,729.8,01.19,0.508
2015-07-06 03:46:00,1723E-3,5C000000,-0724,0822,12440,029.5,045.5,0.472,729.2,01.19,0.508
2015-07-06 03:47:00,1599E-3,5C000000,-0724,0823,12318,029.5,045.5,0.472,729.2,01.19,0.508
2015-07-06 03:48:00,1656E-3,5C000000,-0724,0823,12299,029.5,045.5,0.472,729.8,01.19,0.508
2015-07-06 03:49:00,1661E-3,5C000000,-0724,0823,12318,029.5,045.5,0.472,729.3,01.19,0.508
2015-07-06 03:50:00,1789E-3,5C000000,-0724,0823,12164,029.5,045.5,0.472,729.1,01.19,0.508
2015-07-06 03:51:00,1865E-3,5C000000,-0724,0823,12290,029.5,045.5,0.472,729.4,01.19,0.508
2015-07-06 03:52:00,1719E-3,5C000000,-0724,0823,12292,029.5,045.5,0.472,729.6,01.19,0.508
2015-07-06 03:53:00,1640E-3,5C000000,-0724,0824,12251,029.5,045.5,0.472,729.6,01.19,0.508
2015-07-06 03:54:00,1764E-3,5C000000,-0724,0823,12332,029.5,045.5,0.472,729.7,01.19,0.508
2015-07-06 03:55:00,1505E-3,5C000000,-0724,0823,12299,029.5,045.5,0.472,729.4,01.19,0.508
2015-07-06 03:56:00,1503E-3,5C000000,-0724,0823,12405,029.4,045.5,0.472,729.4,01.19,0.508
2015-07-06 03:57:00,1693E-3,5C000000,-0724,0822,12242,029.4,045.5,0.472,729.4,01.19,0.508
2015-07-06 03:58:00,1643E-3,5C000000,-0724,0823,12290,029.4,045.5,0.473,729.8,01.19,0.508
2015-07-06 03:59:00,1755E-3,5C000000,-0724,0822,12300,029.4,045.5,0.472,729.7,01.19,0.508
2015-07-06 04:00:00,1706E-3,5C000000,-0724,0822,12322,029.4,045.5,0.472,729.9,01.19,0.508
2015-07-06 04:01:00,1609E-3,5C000000,-0724,0822,12314,029.4,045.5,0.472,729.0,01.19,0.508
2015-07-06 04:02:00,1849E-3,5C000000,-0724,0823,12234,029.4,045.5,0.472,729.4,01.19,0.508
2015-07-06 04:03:00,1633E-3,5C000000,-0724,0823,12310,029.4,045.5,0.472,729.4,01.19,0.508
2015-07-06 04:04:00,1752E-3,5C000000,-0724,0822,12238,029.4,045.5,0.472,729.6,01.19,0.508
2015-07-06 04:05:00,1728E-3,5C000000,-0724,0822,12161,029.4,045.5,0.472,729.8,01.19,0.508
2015-07-06 04:06:00,1607E-3,5C000000,-0724,0822,12365,029.4,045.5,0.472,730.0,01.19,0.508
2015-07-06 04:07:00,1642E-3,5C000000,-0724,0823,12353,029.4,045.5,0.472,729.6,01.19,0.508
2015-07-06 04:08:00,1562E-3,5C000000,-0724,0822,12314,029.4,045.5,0.472,730.0,01.19,0.508
2015-07-06 04:09:00,1626E-3,5C000000,-0724,0822,12303,029.4,045.5,0.472,729.6,01.19,0.508
2015-07-06 04:10:00,1777E-3,5C000000,-0724,0822,12299,029.4,045.5,0.472,730.0,01.19,0.508
2015-07-06 04:11:00,1627E-3,5C000000,-0724,0822,12249,029.4,045.5,0.472,729.7,01.19,0.508
2015-07-06 04:12:00,1642E-3,5C000000,-0724,0822,12240,029.4,045.5,0.472,730.1,01.19,0.508
2015-07-06 04:13:00,1683E-3,5C000000,-0724,0822,12235,029.3,045.5,0.472,729.8,01.19,0.508
2015-07-06 04:14:00,1681E-3,5C000000,-0724,0822,12167,029.3,045.5,0.472,730.0,01.19,0.508
2015-07-06 04:15:00,1804E-3,5C000000,-0724,0822,12215,029.3,045.5,0.473,729.8,01.19,0.508
2015-07-06 04:16:00,1724E-3,5C000000,-0724,0823,12200,029.3,045.5,0.473,729.8,01.19,0.508
2015-07-06 04:17:00,1636E-3,5C000000,-0724,0823,12191,029.3,045.5,0.472,729.2,01.19,0.508
2015-07-06 04:18:00,1609E-3,5C000000,-0724,0822,12052,029.3,045.5,0.473,729.5,01.19,0.508
2015-07-06 04:19:00,1793E-3,5C000000,-0724,0822,12167,029.3,045.5,0.472,729.8,01.19,0.508
2015-07-06 04:20:00,1683E-3,5C000000,-0724,0822,12326,029.3,045.5,0.472,729.6,01.19,0.508